Location: Holbach
(51.5399°N, 10.6036°E)
Time: 10:20:35
(UTC+00:00)

Cosmos 1092 Rocket - Pass Details

Date: 22 June 2021
Orbit: 955 x 994 km, 82.9° (Epoch: 28 July)

Event Time Altitude Azimuth Distance (km) Brightness Sun altitude
Exits shadow 02:01:18 - 226° (SW) 2,848 5.8 -7.1°
Reaches altitude 10° 02:01:48 10° 228° (SW) 2,682 5.7 -7.0°
Maximum altitude 02:07:20 34° 292° (WNW) 1,517 4.9 -6.5°
Drops below altitude 10° 02:12:55 10° 357° (N) 2,705 7.1 -6.0°
Sets 02:15:42 0° 7° (N) 3,660 8.1 -5.7°
